This is the latest recevied weather packets stored in our database for station/object HS1AXC-1. If no packets are shown the sender has not sent any weather packets the latest 10 day(s).
| Time | Temp. | Humidity | Pressure | Rain* | Wind** | Luminosity | Snow |
|---|---|---|---|---|---|---|---|
| 1787997369 | 30.56° C | 99% | 1006 hPa | - | - | 0 W/m² | - |
| 1787996747 | 30.56° C | 99% | 1006 hPa | - | - | 0 W/m² | - |
| 1787996438 | 30.56° C | 99% | 1006 hPa | - | - | 0 W/m² | - |
| 1787995816 | 30° C | 99% | 1006 hPa | - | - | 0 W/m² | - |
| 1787995194 | 29.44° C | 99% | 1006 hPa | - | - | 0 W/m² | - |
| 1787994572 | 30° C | 99% | 1006 hPa | - | - | 0 W/m² | - |
| 1787993950 | 29.44° C | 99% | 1006 hPa | - | - | 0 W/m² | - |
| 1787993328 | 30° C | 99% | 1006 hPa | - | - | 0 W/m² | - |
| 1787992706 | 28.89° C | 99% | 1006 hPa | - | - | 0 W/m² | - |
| 1787992084 | 29.44° C | 98% | 1006 hPa | - | - | 0 W/m² | - |
| 1787991462 | 30° C | 98% | 1007 hPa | - | - | 0 W/m² | - |
| 1787990840 | 28.89° C | 99% | 1008 hPa | - | - | 0 W/m² | - |
| 1787990218 | 30.56° C | 94% | 1007 hPa | - | - | 0 W/m² | - |
| 1787989596 | 33.89° C | 75% | 1006 hPa | - | - | 0 W/m² | - |
| 1787988974 | 33.89° C | 78% | 1006 hPa | - | - | 0 W/m² | - |
| 1787988352 | 33.33° C | 79% | 1006 hPa | - | - | 1 W/m² | - |
| 1787987730 | 33.89° C | 84% | 1006 hPa | - | - | 1 W/m² | - |
| 1787987108 | 33.89° C | 76% | 1006 hPa | - | - | 0 W/m² | - |
| 1787986486 | 33.89° C | 80% | 1006 hPa | - | - | 1 W/m² | - |
| 1787985864 | 34.44° C | 79% | 1006 hPa | - | - | 1 W/m² | - |
| 1787985242 | 34.44° C | 72% | 1007 hPa | - | - | 0 W/m² | - |
| 1787984850 | 35° C | 66% | 1006 hPa | - | - | 1 W/m² | - |
| 1787984228 | 35.56° C | 67% | 1007 hPa | - | - | 2 W/m² | - |
| 1787983606 | 35.56° C | 72% | 1007 hPa | - | - | 2 W/m² | - |
| 1787982984 | 35° C | 73% | 1007 hPa | - | - | 2 W/m² | - |
* Rain since midnight (hover to see other rain measurements)
** Current wind speed in m/s (hover to see current wind gust speed)